(36604) = 1999 JO114 = 2000 QP142

Discovered at Socorro on 2000-08-31 by LINEAR.

Orbit

Orbit type: Main Belt

Note: WebGL enabled browser required.

epoch2023-02-25.0
epoch JD2460000.5
perihelion date2021-03-18.70208
perihelion JD2459292.20208
argument of perihelion (°)334.72719
ascending node (°)31.71245
inclination (°)3.53219
eccentricity0.1399955
perihelion distance (AU)2.2029341
Tisserand w.r.t. Jupiter3.4
ΔV w.r.t. Earth (km/sec)9.4
semimajor axis (AU)2.5615377
mean anomaly (°)170.28198
mean daily motion (°/day)0.24041010
aphelion distance (AU)2.920
period (years)4.1
P-vector [x]0.99326423
P-vector [y]0.11399730
P-vector [z]0.02075545
Q-vector [x]-0.11125360
Q-vector [y]0.88819138
Q-vector [z]0.44580119
absolute magnitude15.46
phase slope0.15
uncertainty0
referenceMPO 745323
observations used1116
oppositions21
arc length (days)10688
first opposition used1994
last opposition used2023
residual rms (arc-secs)0.72
perturbers coarse indicatorM-v
perturbers precise indicator003Ek
first observation date used1994-03-05.0
last observation date used2023-06-09.0
computer nameMPCLINUX
JD of orbit computation2456819.402840
perihelion JD uncertainty (days)6.2753E-05
argument of perihelion uncertainty (°)7.0845E-05
ascending node uncertainty (°)6.9436E-05
inclination uncertainty (°)4.2286E-06
eccentricity uncertainty 4.2676E-08
perihelion distance uncertainty (AU)1.0982E-07
Minimum Orbit Intersection Distances (in AU)
for orbit epoch: 2460000.5, reference: E2023-L47
Mercury1.8411
Venus1.47725
Earth1.20046
Mars0.79291
Jupiter2.52821
Saturn6.44512
Uranus15.5394
Neptune27.6027

Observations

1138 total observations over interval: 1994 03 05.19986 – 2023 06 09.212592
These data are available for download (format description).

Date (UT) J2000 RA J2000 Dec Magn Location Ref
1994 03 05.19986 10 42 37.57 +12 47 41.3   691 – Steward Observatory, Kitt Peak-Spacewatch MPS 26658
1994 03 05.22401 10 42 36.19 +12 47 47.9 19.1 V 691 – Steward Observatory, Kitt Peak-Spacewatch MPS 26658
1994 03 05.24795 10 42 34.84 +12 47 54.2   691 – Steward Observatory, Kitt Peak-Spacewatch MPS 26658
1996 10 12.52778 01 51 54.17 +10 40 05.4 18.6 V 566 – Haleakala-NEAT/GEODSS MPS 19402
1996 10 12.53836 01 51 53.55 +10 40 03.6 18.4 V 566 – Haleakala-NEAT/GEODSS MPS 19402
1996 10 12.54681 01 51 53.08 +10 40 01.9 18.3 V 566 – Haleakala-NEAT/GEODSS MPS 19402
1996 11 07.22064 01 29 07.75 +09 27 59.9 18.3 V 691 – Steward Observatory, Kitt Peak-Spacewatch MPS 19402
1996 11 07.24204 01 29 06.78 +09 27 57.5 18.3 V 691 – Steward Observatory, Kitt Peak-Spacewatch MPS 19402
1996 11 07.26343 01 29 05.80 +09 27 55.0 18.2 V 691 – Steward Observatory, Kitt Peak-Spacewatch MPS 19402
1999 05 13.30526 15 31 46.30 -21 16 14.3 18.9   704 – Lincoln Laboratory ETS, New Mexico MPS 5198
1999 05 13.32025 15 31 45.44 -21 16 11.4 19.8   704 – Lincoln Laboratory ETS, New Mexico MPS 5198
1999 05 13.33529 15 31 44.53 -21 16 09.7 19.2   704 – Lincoln Laboratory ETS, New Mexico MPS 5198
1999 05 13.35032 15 31 43.42 -21 16 05.0 19.2   704 – Lincoln Laboratory ETS, New Mexico MPS 5198
1999 05 18.22834 15 26 53.21 -21 04 56.5 19.0   704 – Lincoln Laboratory ETS, New Mexico MPS 5198
1999 05 18.24250 15 26 52.46 -21 04 53.4 19.0   704 – Lincoln Laboratory ETS, New Mexico MPS 5198
1999 05 18.25650 15 26 51.49 -21 04 50.9 19.4   704 – Lincoln Laboratory ETS, New Mexico MPS 5198
1999 05 18.27054 15 26 50.79 -21 04 47.8 19.5   704 – Lincoln Laboratory ETS, New Mexico MPS 5198
2000 08 31.31536 01 05 00.75 +03 30 11.7 18.3   704 – Lincoln Laboratory ETS, New Mexico MPS 18299
2000 08 31.32853 01 05 00.53 +03 30 10.8 18.3   704 – Lincoln Laboratory ETS, New Mexico MPS 18300
2000 08 31.34171 01 05 00.30 +03 30 10.8 18.5   704 – Lincoln Laboratory ETS, New Mexico MPS 18300
2000 08 31.35485 01 05 00.02 +03 30 09.3 18.1   704 – Lincoln Laboratory ETS, New Mexico MPS 18300
2000 08 31.36802 01 04 59.76 +03 30 08.6 18.7   704 – Lincoln Laboratory ETS, New Mexico MPS 18300
2000 09 02.33510 01 04 22.47 +03 27 50.4 17.2   704 – Lincoln Laboratory ETS, New Mexico MPS 18300
2000 09 02.36082 01 04 21.92 +03 27 47.8 16.3   704 – Lincoln Laboratory ETS, New Mexico MPS 18300
2000 09 02.37489 01 04 21.54 +03 27 47.1 17.0   704 – Lincoln Laboratory ETS, New Mexico MPS 18300
2000 09 04.33427 01 03 37.58 +03 24 56.5 18.3 R 699 – Lowell Observatory-LONEOS MPS 19402
2000 09 04.36004 01 03 36.94 +03 24 54.5   699 – Lowell Observatory-LONEOS MPS 19402
2000 09 04.38593 01 03 36.28 +03 24 52.0   699 – Lowell Observatory-LONEOS MPS 19402
2000 09 04.41172 01 03 35.54 +03 24 49.5   699 – Lowell Observatory-LONEOS MPS 19402
2000 09 05.26433 01 03 14.48 +03 23 24.6 18.4   704 – Lincoln Laboratory ETS, New Mexico MPS 18300
2000 09 05.27737 01 03 14.14 +03 23 24.1 19.4   704 – Lincoln Laboratory ETS, New Mexico MPS 18300
2000 09 05.29110 01 03 13.74 +03 23 22.0 18.8   704 – Lincoln Laboratory ETS, New Mexico MPS 18300
2000 09 05.31731 01 03 12.95 +03 23 18.9 18.9   704 – Lincoln Laboratory ETS, New Mexico MPS 18300
2000 09 05.36280 01 03 11.80 +03 23 14.1 18.8   704 – Lincoln Laboratory ETS, New Mexico MPS 18300
2000 09 05.37604 01 03 11.36 +03 23 13.2 18.8   704 – Lincoln Laboratory ETS, New Mexico MPS 18300
2000 09 05.39005 01 03 11.00 +03 23 11.4 19.0   704 – Lincoln Laboratory ETS, New Mexico MPS 18300
2000 09 24.33767 00 50 37.25 +02 31 11.9 18.0   704 – Lincoln Laboratory ETS, New Mexico MPS 19402
2000 09 24.35256 00 50 36.46 +02 31 08.1 17.9   704 – Lincoln Laboratory ETS, New Mexico MPS 19402
2000 09 24.36780 00 50 35.61 +02 31 04.7 18.0   704 – Lincoln Laboratory ETS, New Mexico MPS 19402
2000 09 24.38276 00 50 34.82 +02 31 01.8 17.9   704 – Lincoln Laboratory ETS, New Mexico MPS 19402
2000 09 24.39774 00 50 34.03 +02 30 57.9 18.1   704 – Lincoln Laboratory ETS, New Mexico MPS 19402
2000 09 26.32202 00 48 55.31 +02 24 14.7 17.5 R 699 – Lowell Observatory-LONEOS MPS 26658
2000 09 26.32813 00 48 54.97 +02 24 13.6 18.0   704 – Lincoln Laboratory ETS, New Mexico MPS 19402
2000 09 26.34046 00 48 54.29 +02 24 10.5   699 – Lowell Observatory-LONEOS MPS 26658
2000 09 26.34272 00 48 54.15 +02 24 10.5 18.3   704 – Lincoln Laboratory ETS, New Mexico MPS 19402
2000 09 26.35736 00 48 53.38 +02 24 07.3 18.5   704 – Lincoln Laboratory ETS, New Mexico MPS 19402
2000 09 26.35892 00 48 53.25 +02 24 07.0   699 – Lowell Observatory-LONEOS MPS 26658
2000 09 26.37222 00 48 52.55 +02 24 04.4 18.5   704 – Lincoln Laboratory ETS, New Mexico MPS 19402
2000 09 26.37737 00 48 52.27 +02 24 03.0   699 – Lowell Observatory-LONEOS MPS 26658
2000 09 26.38686 00 48 51.78 +02 24 01.5 18.2   704 – Lincoln Laboratory ETS, New Mexico MPS 19402
2000 10 01.24512 00 44 33.48 +02 06 41.9 18.1   704 – Lincoln Laboratory ETS, New Mexico MPS 19402
2000 10 01.26023 00 44 32.64 +02 06 38.6 18.2   704 – Lincoln Laboratory ETS, New Mexico MPS 19402
2000 10 01.27534 00 44 31.79 +02 06 35.1 18.2   704 – Lincoln Laboratory ETS, New Mexico MPS 19402
2000 10 01.31171 00 44 29.75 +02 06 27.9 17.5 R 699 – Lowell Observatory-LONEOS MPS 21024
2000 10 01.31672 00 44 29.45 +02 06 25.7 18.0   704 – Lincoln Laboratory ETS, New Mexico MPS 19402
2000 10 01.33166 00 44 28.63 +02 06 23.7   699 – Lowell Observatory-LONEOS MPS 21024
2000 10 01.35165 00 44 27.44 +02 06 19.3   699 – Lowell Observatory-LONEOS MPS 21024
2000 10 01.37168 00 44 26.35 +02 06 15.0   699 – Lowell Observatory-LONEOS MPS 21024
2000 10 02.30410 00 43 36.03 +02 02 56.8 17.7   704 – Lincoln Laboratory ETS, New Mexico MPS 19402
2000 10 02.31969 00 43 35.14 +02 02 52.9 17.9   704 – Lincoln Laboratory ETS, New Mexico MPS 19402
2000 10 02.33585 00 43 34.22 +02 02 49.5 18.0   704 – Lincoln Laboratory ETS, New Mexico MPS 19402
2000 10 02.35136 00 43 33.36 +02 02 46.2 18.0   704 – Lincoln Laboratory ETS, New Mexico MPS 19402
2000 10 02.36696 00 43 32.49 +02 02 42.9 18.3   704 – Lincoln Laboratory ETS, New Mexico MPS 19402
2000 10 03.24593 00 42 45.15 +01 59 37.4 18.0   704 – Lincoln Laboratory ETS, New Mexico MPS 19402
2000 10 03.24948 00 42 44.94 +01 59 36.4 17.3   704 – Lincoln Laboratory ETS, New Mexico MPS 19402
2000 10 03.26088 00 42 44.29 +01 59 33.8 18.3   704 – Lincoln Laboratory ETS, New Mexico MPS 19402
2000 10 03.26512 00 42 44.01 +01 59 32.8 17.4   704 – Lincoln Laboratory ETS, New Mexico MPS 19402
2000 10 03.27586 00 42 43.45 +01 59 30.8 18.0   704 – Lincoln Laboratory ETS, New Mexico MPS 19402
2000 10 03.28063 00 42 43.17 +01 59 28.8 18.4   704 – Lincoln Laboratory ETS, New Mexico MPS 19402
2000 10 03.29138 00 42 42.55 +01 59 27.0 19.6   704 – Lincoln Laboratory ETS, New Mexico MPS 19402
2000 10 03.29646 00 42 42.25 +01 59 27.1 19.6   704 – Lincoln Laboratory ETS, New Mexico MPS 19402
2000 10 03.30609 00 42 41.73 +01 59 23.7 18.1   704 – Lincoln Laboratory ETS, New Mexico MPS 19402
2000 10 03.32256 00 42 40.76 +01 59 20.7 18.1   704 – Lincoln Laboratory ETS, New Mexico MPS 19402
2000 10 04.25891 00 41 50.17 +01 56 03.6 17.8   704 – Lincoln Laboratory ETS, New Mexico MPS 19402
2000 10 04.27472 00 41 49.30 +01 56 01.1 18.0   704 – Lincoln Laboratory ETS, New Mexico MPS 19402
2000 10 04.28954 00 41 48.47 +01 55 57.9 17.9   704 – Lincoln Laboratory ETS, New Mexico MPS 19402
2000 10 04.30471 00 41 47.60 +01 55 54.7 17.8   704 – Lincoln Laboratory ETS, New Mexico MPS 19402
2000 10 04.31964 00 41 46.73 +01 55 51.6 17.8   704 – Lincoln Laboratory ETS, New Mexico MPS 19402
2000 10 29.22520 00 22 51.54 +00 57 15.5 18.4   704 – Lincoln Laboratory ETS, New Mexico MPS 21024
2000 10 29.24144 00 22 51.02 +00 57 15.4 18.5   704 – Lincoln Laboratory ETS, New Mexico MPS 21024
2000 10 29.25674 00 22 50.48 +00 57 15.0 19.2   704 – Lincoln Laboratory ETS, New Mexico MPS 21024
2000 10 29.27132 00 22 50.06 +00 57 13.1 18.8   704 – Lincoln Laboratory ETS, New Mexico MPS 21024
2000 10 29.28602 00 22 49.55 +00 57 13.2 18.6   704 – Lincoln Laboratory ETS, New Mexico MPS 21024
2000 11 02.20668 00 21 03.89 +00 55 52.9 18.4   704 – Lincoln Laboratory ETS, New Mexico MPS 21024
